Time,TemperatureF,DewpointF,PressureIn,WindDirection,WindDirectionDegrees,WindSpeedMPH,WindSpeedGustMPH,Humidity,HourlyPrecipIn,Conditions,Clouds,dailyrainin,SolarRadiationWatts/m^2,SoftwareType,DateUTC
2013-06-04 00:12:00,33.0,14.0,-100.00,West,281,0.0,5.0,45,0.00,,,0.00,0.000000,,2013-06-04 06:12:00,
2013-06-04 00:22:00,33.0,14.0,-100.00,West,281,0.0,5.0,45,0.00,,,0.00,0.000000,,2013-06-04 06:22:00,
2013-06-04 00:32:00,33.0,14.0,-100.00,West,281,0.0,5.0,45,0.00,,,0.00,0.000000,,2013-06-04 06:32:00,
2013-06-04 00:42:00,33.0,14.0,-100.00,West,281,0.0,5.0,45,0.00,,,0.00,0.000000,,2013-06-04 06:42:00,
2013-06-04 00:52:00,28.0,14.0,-100.00,WSW,250,0.0,3.0,54,0.00,,,0.00,0.000000,,2013-06-04 06:52:00,
2013-06-04 01:12:00,28.0,14.0,-100.00,WSW,250,0.0,3.0,54,0.00,,,0.00,0.000000,,2013-06-04 07:12:00,
2013-06-04 01:22:00,28.0,14.0,-100.00,WSW,250,0.0,3.0,54,0.00,,,0.00,0.000000,,2013-06-04 07:22:00,
2013-06-04 01:32:00,28.0,14.0,-100.00,WSW,250,0.0,3.0,54,0.00,,,0.00,0.000000,,2013-06-04 07:32:00,
2013-06-04 01:42:00,28.0,14.0,-100.00,WSW,250,0.0,3.0,54,0.00,,,0.00,0.000000,,2013-06-04 07:42:00,
2013-06-04 01:52:00,24.0,15.0,-100.00,WNW,289,0.0,2.0,67,0.00,,,0.00,0.000000,,2013-06-04 07:52:00,
2013-06-04 02:12:00,24.0,15.0,-100.00,WNW,289,0.0,2.0,67,0.00,,,0.00,0.000000,,2013-06-04 08:12:00,
2013-06-04 02:22:00,24.0,15.0,-100.00,WNW,289,0.0,2.0,67,0.00,,,0.00,0.000000,,2013-06-04 08:22:00,
2013-06-04 02:32:00,24.0,15.0,-100.00,WNW,289,0.0,2.0,67,0.00,,,0.00,0.000000,,2013-06-04 08:32:00,
2013-06-04 02:42:00,24.0,15.0,-100.00,WNW,289,0.0,2.0,67,0.00,,,0.00,0.000000,,2013-06-04 08:42:00,
2013-06-04 02:52:00,24.0,17.0,-100.00,West,271,0.0,2.0,73,0.00,,,-99.99,0.000000,,2013-06-04 08:52:00,
2013-06-04 03:12:00,24.0,17.0,-100.00,West,271,0.0,2.0,73,0.00,,,-99.99,0.000000,,2013-06-04 09:12:00,
2013-06-04 03:22:00,24.0,17.0,-100.00,West,271,0.0,2.0,73,0.00,,,-99.99,0.000000,,2013-06-04 09:22:00,
2013-06-04 03:33:00,24.0,17.0,-100.00,West,271,0.0,2.0,73,0.00,,,-99.99,0.000000,,2013-06-04 09:33:00,
2013-06-04 03:43:00,24.0,17.0,-100.00,West,271,0.0,2.0,73,0.00,,,-99.99,0.000000,,2013-06-04 09:43:00,
2013-06-04 03:52:00,23.0,16.0,-100.00,WNW,282,2.0,3.0,75,0.00,,,0.00,0.000000,,2013-06-04 09:52:00,
2013-06-04 04:12:00,23.0,16.0,-100.00,WNW,282,2.0,3.0,75,0.00,,,0.00,0.000000,,2013-06-04 10:12:00,
2013-06-04 04:23:00,23.0,16.0,-100.00,WNW,282,2.0,3.0,75,0.00,,,0.00,0.000000,,2013-06-04 10:23:00,
2013-06-04 04:33:00,23.0,16.0,-100.00,WNW,282,2.0,3.0,75,0.00,,,0.00,0.000000,,2013-06-04 10:33:00,
2013-06-04 04:42:00,23.0,16.0,-100.00,WNW,282,2.0,3.0,75,0.00,,,0.00,0.000000,,2013-06-04 10:42:00,
2013-06-04 04:52:00,22.0,16.0,-100.00,NW,307,0.0,2.0,77,0.00,,,0.00,0.000000,,2013-06-04 10:52:00,
2013-06-04 05:12:00,22.0,16.0,-100.00,NW,307,0.0,2.0,77,0.00,,,0.00,0.000000,,2013-06-04 11:12:00,
2013-06-04 05:22:00,22.0,16.0,-100.00,NW,307,0.0,2.0,77,0.00,,,0.00,0.000000,,2013-06-04 11:22:00,
2013-06-04 05:32:00,22.0,16.0,-100.00,NW,307,0.0,2.0,77,0.00,,,0.00,0.000000,,2013-06-04 11:32:00,
2013-06-04 05:42:00,22.0,16.0,-100.00,NW,307,0.0,2.0,77,0.00,,,0.00,0.000000,,2013-06-04 11:42:00,
2013-06-04 05:52:00,21.0,16.0,-100.00,NW,307,1.0,3.0,79,0.00,,,0.00,4.000000,,2013-06-04 11:52:00,
2013-06-04 06:12:00,21.0,16.0,-100.00,NW,307,1.0,3.0,79,0.00,,,0.00,4.000000,,2013-06-04 12:12:00,
2013-06-04 06:22:00,21.0,16.0,-100.00,NW,307,1.0,3.0,79,0.00,,,0.00,4.000000,,2013-06-04 12:22:00,
2013-06-04 06:32:00,21.0,16.0,-100.00,NW,307,1.0,3.0,79,0.00,,,0.00,4.000000,,2013-06-04 12:32:00,
2013-06-04 06:42:00,21.0,16.0,-100.00,NW,307,1.0,3.0,79,0.00,,,0.00,4.000000,,2013-06-04 12:42:00,
2013-06-04 06:52:00,40.0,18.0,-100.00,WSW,244,5.0,8.0,40,0.00,,,0.00,114.000000,,2013-06-04 12:52:00,
2013-06-04 07:12:00,40.0,18.0,-100.00,WSW,244,5.0,8.0,40,0.00,,,0.00,114.000000,,2013-06-04 13:12:00,
2013-06-04 07:22:00,40.0,18.0,-100.00,WSW,244,5.0,8.0,40,0.00,,,0.00,114.000000,,2013-06-04 13:22:00,
2013-06-04 07:32:00,40.0,18.0,-100.00,WSW,244,5.0,8.0,40,0.00,,,0.00,114.000000,,2013-06-04 13:32:00,
2013-06-04 07:42:00,40.0,18.0,-100.00,WSW,244,5.0,8.0,40,0.00,,,0.00,114.000000,,2013-06-04 13:42:00,
2013-06-04 07:52:00,48.0,17.0,-100.00,West,266,6.0,10.0,29,0.00,,,0.00,337.000000,,2013-06-04 13:52:00,
2013-06-04 08:12:00,48.0,17.0,-100.00,West,266,6.0,10.0,29,0.00,,,0.00,337.000000,,2013-06-04 14:12:00,
2013-06-04 08:22:00,48.0,17.0,-100.00,West,266,6.0,10.0,29,0.00,,,0.00,337.000000,,2013-06-04 14:22:00,
2013-06-04 08:32:00,48.0,17.0,-100.00,West,266,6.0,10.0,29,0.00,,,0.00,337.000000,,2013-06-04 14:32:00,
2013-06-04 08:42:00,48.0,17.0,-100.00,West,266,6.0,10.0,29,0.00,,,0.00,337.000000,,2013-06-04 14:42:00,
2013-06-04 08:52:00,52.0,17.0,-100.00,SW,228,6.0,13.0,25,0.00,,,0.00,564.000000,,2013-06-04 14:52:00,
2013-06-04 09:12:00,52.0,17.0,-100.00,SW,228,6.0,13.0,25,0.00,,,0.00,564.000000,,2013-06-04 15:12:00,
2013-06-04 09:22:00,52.0,17.0,-100.00,SW,228,6.0,13.0,25,0.00,,,0.00,564.000000,,2013-06-04 15:22:00,
2013-06-04 09:33:00,52.0,17.0,-100.00,SW,228,6.0,13.0,25,0.00,,,0.00,564.000000,,2013-06-04 15:33:00,
2013-06-04 09:42:00,52.0,17.0,-100.00,SW,228,6.0,13.0,25,0.00,,,0.00,564.000000,,2013-06-04 15:42:00,
2013-06-04 09:52:00,55.0,16.0,-100.00,West,259,9.0,19.0,21,0.00,,,0.00,775.000000,,2013-06-04 15:52:00,
2013-06-04 10:13:00,55.0,16.0,-100.00,West,259,9.0,19.0,21,0.00,,,0.00,775.000000,,2013-06-04 16:13:00,
2013-06-04 10:23:00,55.0,16.0,-100.00,West,259,9.0,19.0,21,0.00,,,0.00,775.000000,,2013-06-04 16:23:00,
2013-06-04 10:33:00,55.0,16.0,-100.00,West,259,9.0,19.0,21,0.00,,,0.00,775.000000,,2013-06-04 16:33:00,
2013-06-04 10:42:00,55.0,16.0,-100.00,West,259,9.0,19.0,21,0.00,,,0.00,775.000000,,2013-06-04 16:42:00,
2013-06-04 10:52:00,57.0,16.0,-100.00,West,273,10.0,20.0,20,0.00,,,0.00,955.000000,,2013-06-04 16:52:00,
2013-06-04 11:12:00,57.0,16.0,-100.00,West,273,10.0,20.0,20,0.00,,,0.00,955.000000,,2013-06-04 17:12:00,
2013-06-04 11:23:00,57.0,16.0,-100.00,West,273,10.0,20.0,20,0.00,,,0.00,955.000000,,2013-06-04 17:23:00,
2013-06-04 11:33:00,57.0,16.0,-100.00,West,273,10.0,20.0,20,0.00,,,0.00,955.000000,,2013-06-04 17:33:00,
2013-06-04 11:42:00,57.0,16.0,-100.00,West,273,10.0,20.0,20,0.00,,,0.00,955.000000,,2013-06-04 17:42:00,
2013-06-04 11:52:00,59.0,17.0,-100.00,West,264,12.0,21.0,19,0.00,,,0.00,1088.000000,,2013-06-04 17:52:00,
2013-06-04 12:12:00,59.0,17.0,-100.00,West,264,12.0,21.0,19,0.00,,,0.00,1088.000000,,2013-06-04 18:12:00,
2013-06-04 12:22:00,59.0,17.0,-100.00,West,264,12.0,21.0,19,0.00,,,0.00,1088.000000,,2013-06-04 18:22:00,
2013-06-04 12:32:00,59.0,17.0,-100.00,West,264,12.0,21.0,19,0.00,,,0.00,1088.000000,,2013-06-04 18:32:00,
2013-06-04 12:42:00,59.0,17.0,-100.00,West,264,12.0,21.0,19,0.00,,,0.00,1088.000000,,2013-06-04 18:42:00,
2013-06-04 12:52:00,60.0,21.0,-100.00,WSW,244,11.0,29.0,22,0.00,,,0.00,1158.000000,,2013-06-04 18:52:00,
2013-06-04 13:12:00,60.0,21.0,-100.00,WSW,244,11.0,29.0,22,0.00,,,0.00,1158.000000,,2013-06-04 19:12:00,
2013-06-04 13:22:00,60.0,21.0,-100.00,WSW,244,11.0,29.0,22,0.00,,,0.00,1158.000000,,2013-06-04 19:22:00,
2013-06-04 13:32:00,60.0,21.0,-100.00,WSW,244,11.0,29.0,22,0.00,,,0.00,1158.000000,,2013-06-04 19:32:00,
2013-06-04 13:42:00,60.0,21.0,-100.00,WSW,244,11.0,29.0,22,0.00,,,0.00,1158.000000,,2013-06-04 19:42:00,
2013-06-04 13:52:00,62.0,15.0,-100.00,West,262,14.0,30.0,16,0.00,,,0.00,1179.000000,,2013-06-04 19:52:00,
2013-06-04 14:12:00,62.0,15.0,-100.00,West,262,14.0,30.0,16,0.00,,,0.00,1179.000000,,2013-06-04 20:12:00,
2013-06-04 14:22:00,62.0,15.0,-100.00,West,262,14.0,30.0,16,0.00,,,0.00,1179.000000,,2013-06-04 20:22:00,
2013-06-04 14:32:00,62.0,15.0,-100.00,West,262,14.0,30.0,16,0.00,,,0.00,1179.000000,,2013-06-04 20:32:00,
2013-06-04 14:42:00,62.0,15.0,-100.00,West,262,14.0,30.0,16,0.00,,,0.00,1179.000000,,2013-06-04 20:42:00,
2013-06-04 14:52:00,63.0,21.0,-100.00,WNW,286,16.0,33.0,20,0.00,,,0.00,1127.000000,,2013-06-04 20:52:00,
2013-06-04 15:12:00,63.0,21.0,-100.00,WNW,286,16.0,33.0,20,0.00,,,0.00,1127.000000,,2013-06-04 21:12:00,
2013-06-04 15:22:00,63.0,21.0,-100.00,WNW,286,16.0,33.0,20,0.00,,,0.00,1127.000000,,2013-06-04 21:22:00,
2013-06-04 15:33:00,63.0,21.0,-100.00,WNW,286,16.0,33.0,20,0.00,,,0.00,1127.000000,,2013-06-04 21:33:00,
2013-06-04 15:42:00,63.0,21.0,-100.00,WNW,286,16.0,33.0,20,0.00,,,0.00,1127.000000,,2013-06-04 21:42:00,
2013-06-04 15:52:00,63.0,21.0,-100.00,West,275,14.0,32.0,20,0.00,,,0.00,1023.000000,,2013-06-04 21:52:00,
2013-06-04 16:13:00,63.0,21.0,-100.00,West,275,14.0,32.0,20,0.00,,,0.00,1023.000000,,2013-06-04 22:13:00,
2013-06-04 16:22:00,63.0,21.0,-100.00,West,275,14.0,32.0,20,0.00,,,0.00,1023.000000,,2013-06-04 22:22:00,
2013-06-04 16:32:00,63.0,21.0,-100.00,West,275,14.0,32.0,20,0.00,,,0.00,1023.000000,,2013-06-04 22:32:00,
2013-06-04 16:42:00,63.0,21.0,-100.00,West,275,14.0,32.0,20,0.00,,,0.00,1023.000000,,2013-06-04 22:42:00,
2013-06-04 16:52:00,64.0,20.0,-100.00,West,266,14.0,31.0,18,0.00,,,0.00,862.000000,,2013-06-04 22:52:00,
2013-06-04 17:12:00,64.0,20.0,-100.00,West,266,14.0,31.0,18,0.00,,,0.00,862.000000,,2013-06-04 23:12:00,
2013-06-04 17:22:00,64.0,20.0,-100.00,West,266,14.0,31.0,18,0.00,,,0.00,862.000000,,2013-06-04 23:22:00,
2013-06-04 17:32:00,64.0,20.0,-100.00,West,266,14.0,31.0,18,0.00,,,0.00,862.000000,,2013-06-04 23:32:00,
2013-06-04 17:42:00,64.0,20.0,-100.00,West,266,14.0,31.0,18,0.00,,,0.00,862.000000,,2013-06-04 23:42:00,
2013-06-04 17:52:00,63.0,19.0,-100.00,West,270,15.0,33.0,18,0.00,,,0.00,638.000000,,2013-06-04 23:52:00,
2013-06-04 18:12:00,63.0,19.0,-100.00,West,270,15.0,33.0,18,0.00,,,0.00,638.000000,,2013-06-05 00:12:00,
2013-06-04 18:22:00,63.0,19.0,-100.00,West,270,15.0,33.0,18,0.00,,,0.00,638.000000,,2013-06-05 00:22:00,
2013-06-04 18:32:00,63.0,19.0,-100.00,West,270,15.0,33.0,18,0.00,,,0.00,638.000000,,2013-06-05 00:32:00,
2013-06-04 18:42:00,63.0,19.0,-100.00,West,270,15.0,33.0,18,0.00,,,0.00,638.000000,,2013-06-05 00:42:00,
2013-06-04 18:52:00,49.0,39.0,-100.00,NE,47,11.0,24.0,67,0.00,,,0.00,182.000000,,2013-06-05 00:52:00,
2013-06-04 19:12:00,49.0,39.0,-100.00,NE,47,11.0,24.0,67,0.00,,,0.00,182.000000,,2013-06-05 01:12:00,
2013-06-04 19:22:00,49.0,39.0,-100.00,NE,47,11.0,24.0,67,0.00,,,0.00,182.000000,,2013-06-05 01:22:00,
2013-06-04 19:32:00,49.0,39.0,-100.00,NE,47,11.0,24.0,67,0.00,,,0.00,182.000000,,2013-06-05 01:32:00,
2013-06-04 19:42:00,49.0,39.0,-100.00,NE,47,11.0,24.0,67,0.00,,,0.00,182.000000,,2013-06-05 01:42:00,
2013-06-04 19:52:00,44.0,35.0,-100.00,NE,53,11.0,22.0,70,0.00,,,0.00,55.000000,,2013-06-05 01:52:00,
2013-06-04 20:12:00,44.0,35.0,-100.00,NE,53,11.0,22.0,70,0.00,,,0.00,55.000000,,2013-06-05 02:12:00,
2013-06-04 20:22:00,44.0,35.0,-100.00,NE,53,11.0,22.0,70,0.00,,,0.00,55.000000,,2013-06-05 02:22:00,
2013-06-04 20:32:00,44.0,35.0,-100.00,NE,53,11.0,22.0,70,0.00,,,0.00,55.000000,,2013-06-05 02:32:00,
2013-06-04 20:42:00,44.0,35.0,-100.00,NE,53,11.0,22.0,70,0.00,,,0.00,55.000000,,2013-06-05 02:42:00,
2013-06-04 20:52:00,40.0,35.0,-100.00,ENE,64,9.0,17.0,81,0.00,,,0.00,17.000000,,2013-06-05 02:52:00,
2013-06-04 21:12:00,40.0,35.0,-100.00,ENE,64,9.0,17.0,81,0.00,,,0.00,17.000000,,2013-06-05 03:12:00,
2013-06-04 21:22:00,40.0,35.0,-100.00,ENE,64,9.0,17.0,81,0.00,,,0.00,17.000000,,2013-06-05 03:22:00,
2013-06-04 21:33:00,40.0,35.0,-100.00,ENE,64,9.0,17.0,81,0.00,,,0.00,17.000000,,2013-06-05 03:33:00,
2013-06-04 21:43:00,40.0,35.0,-100.00,ENE,64,9.0,17.0,81,0.00,,,0.00,17.000000,,2013-06-05 03:43:00,
2013-06-04 21:52:00,39.0,35.0,-100.00,NE,54,8.0,16.0,85,0.00,,,0.00,0.000000,,2013-06-05 03:52:00,
2013-06-04 22:13:00,39.0,35.0,-100.00,NE,54,8.0,16.0,85,0.00,,,0.00,0.000000,,2013-06-05 04:13:00,
2013-06-04 22:23:00,39.0,35.0,-100.00,NE,54,8.0,16.0,85,0.00,,,0.00,0.000000,,2013-06-05 04:23:00,
2013-06-04 22:33:00,39.0,35.0,-100.00,NE,54,8.0,16.0,85,0.00,,,0.00,0.000000,,2013-06-05 04:33:00,
2013-06-04 22:42:00,39.0,35.0,-100.00,NE,54,8.0,16.0,85,0.00,,,0.00,0.000000,,2013-06-05 04:42:00,
2013-06-04 22:52:00,39.0,36.0,-100.00,ENE,69,6.0,13.0,88,0.00,,,0.00,0.000000,,2013-06-05 04:52:00,
2013-06-04 23:12:00,39.0,36.0,-100.00,ENE,69,6.0,13.0,88,0.00,,,0.00,0.000000,,2013-06-05 05:12:00,
2013-06-04 23:22:00,39.0,36.0,-100.00,ENE,69,6.0,13.0,88,0.00,,,0.00,0.000000,,2013-06-05 05:22:00,
2013-06-04 23:32:00,39.0,36.0,-100.00,ENE,69,6.0,13.0,88,0.00,,,0.00,0.000000,,2013-06-05 05:32:00,
2013-06-04 23:42:00,39.0,36.0,-100.00,ENE,69,6.0,13.0,88,0.00,,,0.00,0.000000,,2013-06-05 05:42:00,
2013-06-04 23:52:00,38.0,36.0,-100.00,ENE,58,6.0,11.0,91,0.00,,,0.00,0.000000,,2013-06-05 05:52:00,